Weather History for McGuire AFB, NJ

Change the Weather History Date:

Saturday, February 2, 2013

  Actual Average Record
Temperature  
Mean Temperature 23 °F -  
Max Temperature 30 °F 40 °F 57 °F (2006)
Min Temperature 16 °F 23 °F 10 °F (2005)
Degree Days  
Heating Degree Days 42    
Moisture  
Dew Point 13 °F    
Average Humidity 63    
Maximum Humidity 90    
Minimum Humidity 34    
Precipitation  
Precipitation 0.01 in - - ()
Sea Level Pressure  
Sea Level Pressure 30.14 in    
Wind  
Wind Speed 9 mph (SW)    
Max Wind Speed 14 mph    
Max Gust Speed 22 mph    
Visibility 7 miles    
Events Snow    
Averages and records for this station are not official NWS values.
T = Trace of Precipitation, MM = Missing Value Source: NWS Daily Summary

Daily Weather History Graph

Daily Weather History Graph

Search for Another Location

Airport:

Trip Planner

Search our weather history database for the weather conditions in past years. The results will help you decide how hot, cold, wet, or windy it might be!

Date:

Astronomy

Feb. 02, 2013 Rise Set
Actual Time 7:05 AM EST 5:19 PM EST
Civil Twilight 6:37 AM EST 5:47 PM EST
Nautical Twilight 6:04 AM EST 6:19 PM EST
Astronomical Twilight 5:33 AM EST 6:51 PM EST
Moon No Moon Rise 10:14 AM EST
Length of Visible Light 11h 10m
Length of Day
10h 13m
Waning Gibbous, 60% of the Moon is Illuminated
Feb 2
Waning Gibbous
Feb 3
Last Quarter
Feb 10
New
Feb 17
First Quarter
Feb 25
Full

Hourly Weather History & Observations

Time (EST) Temp. Windchill Dew Point Humidity Pressure Visibility Wind Dir Wind Speed Gust Speed Precip Events Conditions
12:55 AM 21.6 °F 9.3 °F 4.3 °F 47% 30.27 in 10.0 mi WNW 12.7 mph - N/A   Clear
1:55 AM 20.7 °F 9.5 °F 4.5 °F 50% 30.29 in 10.0 mi WNW 10.4 mph - N/A   Clear
2:55 AM 19.8 °F 9.1 °F 4.6 °F 52% 30.31 in 10.0 mi West 9.2 mph - N/A   Clear
3:55 AM 19.0 °F 8.2 °F 5.5 °F 56% 30.30 in 10.0 mi WNW 9.2 mph - N/A   Clear
4:55 AM 18.3 °F 8.2 °F 5.4 °F 57% 30.30 in 10.0 mi WNW 8.1 mph - N/A   Clear
5:55 AM 17.6 °F 9.3 °F 4.5 °F 56% 30.30 in - West 5.8 mph - N/A   Clear
6:55 AM 16.7 °F - 4.1 °F 58% 30.32 in - North - - N/A   Clear
7:55 AM 18.9 °F 13.7 °F 4.5 °F 54% 30.32 in 10.0 mi WSW 3.5 mph - N/A   Clear
8:55 AM 21.9 °F 12.5 °F 3.4 °F 45% 30.32 in 10.0 mi WNW 8.1 mph - N/A   Clear
9:55 AM 23.7 °F 16.6 °F 3.7 °F 42% 30.30 in 10.0 mi WSW 5.8 mph - N/A   Clear
10:55 AM 26.1 °F - 3.6 °F 38% 30.27 in - North - - N/A   Clear
12:14 PM 30.2 °F 20.8 °F 5.0 °F 34% 30.26 in 7.0 mi SSW 11.5 mph - N/A   Scattered Clouds
12:55 PM 28.8 °F 17.9 °F 4.6 °F 36% 30.19 in 10.0 mi WSW 13.8 mph 21.9 mph N/A   Unknown
1:55 PM 29.8 °F 20.3 °F 5.2 °F 35% 30.16 in 10.0 mi WSW 11.5 mph - N/A   Scattered Clouds
2:55 PM 29.5 °F 19.3 °F 4.6 °F 35% 30.14 in 10.0 mi SSW 12.7 mph - N/A   Mostly Cloudy
3:55 PM 29.7 °F 20.1 °F 7.0 °F 38% 30.12 in 10.0 mi WSW 11.5 mph - N/A   Overcast
4:55 PM 27.7 °F 17.6 °F 5.9 °F 40% 30.10 in 10.0 mi SW 11.5 mph - N/A   Mostly Cloudy
5:55 PM 27.3 °F 18.4 °F 5.5 °F 40% 30.09 in 10.0 mi SSW 9.2 mph - N/A   Partly Cloudy
6:55 PM 27.3 °F 18.4 °F 7.7 °F 44% 30.09 in 10.0 mi South 9.2 mph - N/A   Overcast
7:17 PM 26.6 °F 16.8 °F 8.6 °F 47% 30.08 in 10.0 mi SSW 10.4 mph - N/A Snow Light Snow
7:27 PM 26.6 °F 18.2 °F 8.6 °F 47% 30.08 in 10.0 mi SSW 8.1 mph - N/A   Overcast
7:32 PM 26.6 °F 16.2 °F 10.4 °F 51% 30.08 in 10.0 mi SSW 11.5 mph - N/A Snow Light Snow
7:49 PM 26.6 °F 17.5 °F 12.2 °F 55% 30.08 in 10.0 mi SSW 9.2 mph - N/A   Mostly Cloudy
7:55 PM 26.6 °F 16.8 °F 12.7 °F 56% 30.08 in 10.0 mi SSW 10.4 mph - 0.00 in   Overcast
8:23 PM 26.6 °F 17.5 °F 14.0 °F 59% 30.08 in 10.0 mi WSW 9.2 mph - N/A Snow Light Snow
8:49 PM 26.6 °F 17.5 °F 17.6 °F 69% 30.09 in 7.0 mi SW 9.2 mph - N/A Snow Light Snow
8:51 PM 26.6 °F 17.5 °F 17.6 °F 69% 30.09 in 6.0 mi SW 9.2 mph - N/A Snow Light Snow
8:53 PM 24.8 °F 15.3 °F 17.6 °F 74% 30.09 in 5.0 mi SW 9.2 mph - N/A Snow Light Snow
8:55 PM 25.5 °F 16.2 °F 18.0 °F 73% 30.09 in 5.0 mi SW 9.2 mph - 0.00 in Snow Light Snow
9:13 PM 24.8 °F 16.9 °F 19.4 °F 80% 30.09 in 3.0 mi SW 6.9 mph - N/A Snow Light Snow
9:14 PM 24.8 °F 16.9 °F 19.4 °F 80% 30.09 in 3.0 mi SW 6.9 mph - N/A Snow Light Snow
9:15 PM 24.8 °F 16.9 °F 19.4 °F 80% 30.09 in 2.5 mi SW 6.9 mph - N/A Snow Light Snow
9:19 PM 24.8 °F 19.1 °F 19.4 °F 80% 30.09 in 2.5 mi SW 4.6 mph - N/A Snow Light Snow
9:37 PM 24.8 °F 19.1 °F 21.2 °F 86% 30.08 in 2.5 mi SSW 4.6 mph - N/A Snow Light Snow
9:55 PM 24.4 °F 20.1 °F 21.2 °F 87% 30.08 in 1.5 mi South 3.5 mph - 0.00 in Snow Light Snow
10:00 PM 24.8 °F 19.1 °F 21.2 °F 86% 30.08 in 2.0 mi South 4.6 mph - N/A Snow Light Snow
10:07 PM 24.8 °F 20.5 °F 21.2 °F 86% 30.07 in 3.0 mi South 3.5 mph - N/A Snow Light Snow
10:14 PM 24.8 °F 20.5 °F 21.2 °F 86% 30.07 in 3.0 mi South 3.5 mph - N/A Snow Light Snow
10:16 PM 24.8 °F 20.5 °F 21.2 °F 86% 30.07 in 4.0 mi South 3.5 mph - N/A Snow Light Snow
10:26 PM 24.8 °F - 21.2 °F 86% 30.07 in 4.0 mi Calm Calm - N/A Snow Light Snow
10:34 PM 24.8 °F 20.5 °F 21.2 °F 86% 30.06 in 4.0 mi SE 3.5 mph - N/A Snow Light Snow
10:55 PM 24.4 °F - 21.7 °F 89% 30.05 in 4.0 mi Calm Calm - 0.00 in Snow Light Snow
11:34 PM 24.8 °F 20.5 °F 21.2 °F 86% 30.04 in 5.0 mi SE 3.5 mph - N/A Snow Light Snow
11:55 PM 24.4 °F 20.1 °F 21.9 °F 90% 30.03 in 5.0 mi SE 3.5 mph - 0.01 in Snow Light Snow
11:57 PM 24.8 °F 20.5 °F 21.2 °F 86% 30.03 in 5.0 mi SE 3.5 mph - N/A Snow Light Snow